Pink Ribbon: National Breast Cancer Awareness Month map of RAK home
RAK - Airport
Location
City:  Marrakech, Morocco
Name:Menara
ICAO:GMMX
IATA:RAK

Details
Type:Airport (Aerodrome, Airfield)
Use:Public/Civil, Military, International (customs port of entry)
Latitude:3136'25"N (31.606886)
Longitude:802'11"W (-8.036299)
Datum:WGS 1984
Elevation:1545 ft (471 m)
Variation:2.13W (WMM2015 magnetic declination)
0.11 annual change
Runways:1
Longest:10170 × 148 ft (3100 × 45 m), paved

Time
Time Zone:UTC+0 (DST+1)
Local Time:

Weather
METAR:GMMX 012000Z 32005KT 280V350 9999 SCT100 27/08 Q1015 NOSIG
TAF:GMMX 011700Z 0118/0224 26008KT 9999 SCT100
TEMPO 0200/0207 VRB03KT CAVOK
TEMPO 0216/0220 24016KT

Related Locations
Nearby:
Farthest:KAT: 12180 mi / 19603 km
Kaitaia, NZ

Find:

   beyond  
but within

Other Information
Maps:
NOTAMs:
Links:
Sources:

  
flag of Morocco   

Sectional Chart

Flight Planning
at skyvector.com

Satellite Image

Google Maps Satellite view

 

Copyright © 2004-2016 Karl L. Swartz. All rights reserved.
The Great Circle Mapper name and logo are trademarks of the Great Circle Mapper.
All other trademarks mentioned herein belong to their respective owners.
Please see credits for attibutions and further copyright information.

  Follow gcmap on Facebook Follow gcmap on Twitter Follow gcmap on Google+ GCmap on LinkedIn

hCard Microformat

Geo Microformat